Location: Pel�-Koumbol�
(14.9505°N, 3.0798°W)
Time: 13:42:52
(UTC+00:00)

Delta 168 - Pass Details

Date: 17 February 2020
Orbit: 394 x 2052 km, 25.3° (Epoch: 29 March)

Event Time Altitude Azimuth Distance (km) Brightness Sun altitude
Exits shadow 05:36:30 18° 316° (NW) 1,575 4.7 -15.0°
Maximum altitude 05:38:16 22° 347° (NNW) 1,284 4.5 -14.5°
Drops below altitude 10° 05:41:17 10° 40° (NE) 1,677 5.7 -13.8°
Sets 05:43:32 0° 57° (ENE) 2,423 6.9 -13.3°
